Wind_Speed
15 15 15 16 17 16 14 12 11 10 10 10 9 9 8 9 10 9 8 8 10 11 13 14 15 15 16 16 18 19 20 20 20 21 21 21 21 21 21 22 24 25 26
17 17 16 17 17 18 17 15 12 12 12 11 10 9 9 10 11 11 9 8 10 12 14 15 15 16 17 18 18 18 19 20 20 21 22 23 22 22 23 25 27 28 28
18 17 16 17 18 18 18 16 14 13 13 12 11 10 10 11 12 12 11 11 12 13 15 15 16 16 17 18 18 17 18 18 20 20 21 22 23 24 25 26 28 28 27
19 18 17 17 17 17 17 16 15 14 14 13 11 10 10 10 12 13 13 12 13 14 16 17 18 18 18 19 19 19 19 20 21 21 22 23 24 24 25 26 26 27 27
21 21 20 19 18 17 17 16 15 14 14 13 12 11 11 11 12 12 13 13 13 13 13 14 15 16 17 19 20 20 21 22 22 23 23 23 24 24 25 26 27 28 29
25 24 21 22 24 22 18 16 14 14 14 13 13 13 12 12 12 12 12 13 14 14 14 14 15 16 17 19 20 21 22 23 24 25 25 25 26 28 28 29 29 30 31
27 27 26 26 27 26 19 15 14 14 14 14 14 14 13 12 12 12 12 13 13 14 14 14 15 15 16 17 18 19 20 21 22 23 23 23 25 27 28 29 29 31 32
28 27 27 27 27 25 20 16 16 15 15 16 16 16 15 13 12 12 12 11 10 10 9 10 12 13 14 17 18 20 20 21 22 22 22 23 24 26 28 29 30 32 33
28 27 26 27 26 23 20 18 17 17 16 17 17 17 17 16 15 14 14 13 11 11 12 14 18 20 21 23 25 27 27 26 26 26 25 25 26 28 29 30 31 33 35
28 27 28 28 26 23 20 19 18 18 18 18 18 19 19 19 18 18 17 17 16 16 17 19 21 22 23 26 28 29 30 30 28 27 26 26 26 26 28 29 30 31 33
29 27 28 29 27 24 22 20 20 19 19 20 20 20 21 22 21 21 20 20 19 19 19 20 22 23 26 26 23 22 23 24 24 25 25 25 26 28 30 31 30 30 31
31 29 29 30 28 26 24 23 23 22 20 21 23 22 23 24 24 23 23 23 22 22 22 22 23 24 27 24 19 17 17 18 20 23 24 26 28 30 31 32 31 32 32
33 31 30 31 30 28 27 26 26 26 24 23 23 26 26 27 27 27 27 27 25 25 24 24 25 27 28 24 19 17 18 20 20 22 24 27 29 31 32 34 35 36 35
35 33 32 33 32 32 32 30 29 29 27 25 25 26 29 30 30 30 31 30 28 27 26 26 28 29 29 27 23 21 22 23 24 26 28 31 34 36 37 38 39 38 38
37 35 34 34 35 35 35 34 32 31 30 28 27 27 29 30 31 31 32 32 30 29 28 28 30 31 32 30 27 26 27 28 29 31 33 37 39 40 40 40 39 39 39
38 38 37 35 35 36 37 37 35 34 34 32 29 28 29 30 30 30 31 32 31 32 31 31 32 32 33 32 30 30 29 31 32 34 36 38 40 40 39 37 36 35 36
39 39 38 37 36 35 36 35 35 36 36 34 31 30 31 31 30 30 31 32 33 33 32 32 32 34 35 33 31 31 31 33 34 36 38 39 39 38 36 35 35 36 38
42 41 40 39 38 37 36 35 35 37 37 35 34 33 33 33 32 31 32 33 33 32 31 31 33 35 35 33 32 32 33 34 35 37 39 39 38 38 37 38 39 41 42
41 43 43 41 40 40 38 35 35 37 38 37 36 34 34 34 34 33 33 34 33 32 32 32 34 35 33 33 34 35 36 36 37 39 40 40 40 40 41 42 43 45 47
41 41 44 45 44 42 39 37 36 37 38 38 37 35 35 35 36 35 34 34 32 31 31 32 32 33 33 35 37 39 39 40 41 42 42 42 43 43 45 46 48 50 52
43 40 39 45 47 45 42 40 39 40 40 39 37 36 35 35 36 37 35 33 31 31 31 32 33 34 36 39 41 42 42 43 44 45 45 45 46 47 49 51 53 55 56
45 43 38 41 45 45 43 42 42 41 40 38 36 35 35 35 38 38 35 34 33 34 34 35 37 38 40 42 43 46 47 46 47 47 48 48 49 51 53 55 57 59 61
47 45 42 40 44 46 45 44 43 42 40 38 36 35 35 35 37 39 37 37 37 37 38 39 41 42 44 45 46 47 48 48 47 49 50 51 52 55 58 60 62 64 66
46 46 44 42 43 45 45 44 43 42 39 37 37 36 36 36 37 39 40 41 42 43 43 43 45 46 47 48 49 50 50 51 50 48 49 52 55 58 60 63 65 67 70
46 45 43 43 43 44 45 44 42 41 38 37 36 37 37 37 38 39 41 42 44 45 45 46 47 48 49 51 51 51 51 53 53 52 51 54 56 58 60 64 68 71 73
47 44 42 43 44 44 45 43 41 40 39 38 36 37 39 39 40 40 41 43 44 45 46 47 48 50 51 52 52 52 53 54 54 56 57 58 59 60 63 66 69 72 73
Wind_Direction
254 252 256 258 256 256 258 264 270 277 283 286 284 278 272 266 263 261 257 253 259 265 267 268 269 271 273 273 273 272 272 270 271 272 272 273 275 279 281 281 284 286 288
256 258 258 258 261 262 264 266 268 273 276 278 277 271 265 263 258 254 254 254 259 262 262 262 264 268 272 274 273 273 273 273 272 272 271 272 274 278 282 284 285 286 286
256 263 263 262 263 265 267 267 269 272 274 274 271 267 262 259 255 253 254 255 257 258 259 261 265 268 271 272 272 272 272 272 271 271 271 273 276 279 282 285 287 287 287
255 259 264 270 268 266 264 263 265 267 267 266 261 259 260 258 253 251 255 256 256 255 255 259 264 267 270 272 272 272 274 276 276 275 275 277 278 280 282 283 285 286 288
258 262 268 275 275 269 263 260 262 265 264 261 257 255 254 256 256 255 257 257 257 258 258 261 267 270 272 274 275 276 277 279 279 278 278 279 280 281 281 282 284 286 288
261 267 273 276 277 272 265 260 260 260 256 253 255 254 253 253 256 258 260 260 259 260 263 266 268 272 274 276 277 279 279 278 278 278 279 280 282 282 282 282 283 285 285
259 262 262 268 273 273 265 256 255 256 253 250 250 251 254 254 252 256 259 259 259 262 266 271 274 279 283 284 285 285 285 282 280 280 282 283 283 283 284 284 284 284 284
259 259 260 264 268 270 268 261 256 255 253 249 247 246 249 251 249 252 252 249 251 257 264 271 278 284 285 285 283 283 282 281 280 281 281 282 283 284 285 285 286 285 284
260 263 262 261 263 265 267 266 262 260 257 252 247 244 244 246 245 243 240 238 244 255 264 276 285 290 291 289 285 281 280 279 280 280 281 283 286 286 286 287 287 285 282
255 261 260 257 255 256 261 266 266 265 263 258 251 245 244 246 246 243 243 246 251 260 271 281 290 294 299 298 292 286 281 278 280 282 283 284 285 287 290 292 292 291 285
248 252 252 248 247 250 255 261 266 270 269 264 257 250 247 248 250 249 250 251 255 262 271 282 290 296 303 304 302 296 288 282 280 281 283 285 286 289 292 293 293 292 290
244 245 245 243 246 250 254 256 261 266 271 268 261 255 251 250 252 255 257 255 257 262 270 281 287 296 303 303 305 308 302 292 285 283 283 284 285 287 288 290 290 288 288
242 240 239 239 244 250 255 257 259 263 267 269 265 259 255 254 254 256 258 259 259 263 270 278 285 293 299 298 297 300 298 293 288 285 285 286 286 287 288 289 288 286 286
244 241 238 238 242 248 253 257 260 262 267 269 268 264 260 258 257 256 257 259 260 263 269 276 285 290 295 293 289 289 290 290 289 289 291 292 292 293 294 292 289 287 284
244 243 241 241 244 248 252 256 260 262 263 265 267 269 267 265 263 261 261 262 262 265 270 277 285 288 292 291 285 282 285 288 291 293 295 295 294 295 296 294 291 287 285
244 243 243 243 245 249 253 255 258 260 260 262 266 271 272 271 268 264 263 264 263 265 269 275 281 284 289 287 281 279 282 287 291 293 294 294 293 294 294 293 292 290 287
244 243 244 246 248 251 255 257 258 260 262 263 266 271 272 272 268 262 261 262 262 264 267 272 278 282 284 283 280 280 284 288 291 294 295 295 293 292 291 291 290 289 288
244 244 245 247 248 250 253 256 258 261 264 266 268 270 271 271 266 260 261 262 263 264 265 271 276 280 281 280 279 282 286 289 292 295 296 294 291 288 287 287 287 286 285
244 244 245 247 248 249 251 254 258 262 265 267 267 267 269 270 266 259 259 262 263 265 268 273 278 281 280 279 281 285 288 288 291 294 294 291 288 286 285 285 285 283 283
243 245 244 246 248 249 250 252 256 260 264 266 266 265 265 269 265 257 257 261 265 269 272 276 282 284 283 283 286 288 289 289 291 294 293 290 287 285 284 284 284 284 284
243 244 244 243 246 248 249 250 253 257 262 266 269 265 263 267 261 255 256 261 266 270 275 279 284 285 286 288 290 292 291 291 292 293 292 290 287 285 286 286 287 287 287
244 244 242 241 243 246 248 250 253 257 262 267 270 265 263 265 258 253 256 262 267 271 275 281 284 285 288 291 293 294 293 292 292 292 291 289 288 288 289 289 289 290 290
242 244 242 239 241 244 247 251 255 258 262 265 266 263 262 261 257 254 257 263 269 272 276 281 285 287 289 291 293 292 292 290 291 291 291 290 290 290 291 291 292 293 294
240 242 242 239 240 244 246 249 253 256 259 262 263 262 260 260 258 257 260 266 271 275 279 283 286 288 289 290 292 292 290 289 288 286 285 286 287 288 290 292 293 294 293
238 239 240 239 240 243 246 249 252 256 260 264 263 261 260 260 260 261 264 268 272 276 280 282 284 286 289 290 292 292 290 290 290 288 287 287 287 287 288 290 291 291 291
237 238 237 237 238 242 246 249 252 257 261 264 264 262 261 262 263 265 268 271 274 277 279 281 284 287 289 291 292 291 291 291 291 291 291 291 291 290 290 291 291 292 293
Height
5857 5857 5857 5858 5858 5858 5857 5857 5857 5857 5857 5856 5855 5855 5855 5855 5854 5854 5854 5853 5854 5854 5853 5853 5852 5852 5853 5853 5853 5853 5853 5853 5853 5853 5854 5854 5854 5854 5854 5854 5853 5853 5851
5853 5853 5853 5854 5854 5854 5854 5854 5854 5854 5854 5853 5852 5852 5852 5853 5853 5852 5852 5851 5851 5851 5851 5850 5850 5849 5850 5850 5850 5850 5850 5850 5850 5850 5851 5851 5851 5851 5850 5850 5849 5849 5847
5849 5849 5850 5851 5851 5851 5851 5851 5851 5851 5851 5851 5850 5850 5850 5850 5850 5850 5849 5849 5848 5848 5848 5848 5847 5847 5847 5847 5847 5847 5847 5847 5848 5847 5847 5847 5846 5846 5845 5845 5844 5844 5842
5845 5846 5846 5847 5848 5848 5848 5848 5848 5848 5848 5848 5848 5847 5847 5847 5847 5847 5847 5847 5846 5845 5845 5845 5845 5844 5844 5844 5844 5844 5844 5844 5844 5844 5843 5842 5842 5841 5840 5839 5839 5838 5837
5842 5842 5843 5843 5844 5844 5844 5845 5844 5844 5845 5845 5845 5844 5844 5844 5844 5844 5844 5844 5844 5843 5843 5842 5842 5842 5841 5841 5841 5840 5840 5840 5840 5839 5838 5837 5837 5836 5835 5833 5833 5832 5832
5839 5839 5840 5840 5840 5840 5841 5841 5841 5841 5842 5841 5842 5842 5842 5841 5841 5842 5841 5841 5840 5840 5840 5840 5840 5839 5839 5838 5837 5836 5836 5835 5835 5834 5833 5832 5831 5830 5829 5828 5827 5826 5826
5836 5836 5837 5836 5836 5836 5837 5837 5837 5838 5839 5838 5838 5839 5839 5839 5839 5838 5838 5837 5837 5837 5838 5838 5837 5836 5835 5835 5834 5832 5831 5830 5829 5828 5827 5825 5825 5824 5823 5822 5821 5820 5819
5831 5832 5832 5832 5832 5832 5833 5833 5834 5834 5835 5835 5835 5836 5836 5836 5836 5835 5834 5834 5834 5834 5835 5835 5834 5833 5832 5831 5830 5828 5826 5825 5824 5823 5821 5820 5819 5818 5818 5816 5814 5813 5812
5826 5826 5827 5828 5828 5828 5829 5829 5829 5830 5831 5831 5832 5832 5832 5833 5832 5832 5831 5831 5831 5831 5831 5831 5831 5829 5827 5826 5824 5823 5820 5819 5818 5817 5816 5814 5813 5812 5811 5810 5808 5806 5805
5821 5821 5822 5823 5823 5824 5825 5825 5825 5826 5826 5827 5827 5828 5828 5829 5829 5829 5829 5828 5828 5828 5827 5826 5826 5824 5822 5820 5818 5815 5814 5812 5811 5810 5809 5808 5807 5806 5805 5803 5801 5799 5798
5816 5817 5817 5818 5819 5820 5821 5821 5821 5822 5822 5822 5823 5823 5824 5824 5824 5825 5825 5824 5824 5823 5822 5822 5820 5818 5817 5814 5811 5808 5807 5805 5804 5804 5803 5802 5801 5800 5799 5797 5795 5793 5791
5810 5812 5813 5814 5815 5816 5817 5817 5818 5818 5817 5817 5818 5818 5818 5819 5819 5820 5820 5819 5818 5818 5817 5816 5815 5813 5811 5809 5806 5804 5802 5800 5798 5798 5797 5796 5795 5794 5792 5790 5788 5786 5785
5804 5806 5808 5809 5810 5811 5812 5812 5813 5813 5813 5813 5813 5813 5813 5813 5814 5814 5814 5813 5812 5812 5811 5810 5808 5807 5805 5803 5801 5799 5797 5796 5793 5793 5791 5790 5789 5787 5785 5783 5781 5779 5779
5799 5801 5802 5803 5805 5806 5807 5807 5808 5808 5808 5808 5808 5807 5807 5808 5808 5808 5808 5807 5806 5806 5805 5803 5802 5801 5800 5798 5796 5794 5792 5791 5788 5787 5785 5783 5782 5780 5778 5775 5773 5771 5770
5793 5795 5796 5798 5799 5800 5801 5802 5802 5803 5803 5803 5802 5802 5802 5803 5803 5803 5802 5801 5800 5799 5799 5797 5796 5795 5794 5792 5790 5788 5786 5785 5782 5780 5777 5775 5773 5771 5768 5766 5764 5762 5761
5786 5788 5789 5791 5793 5795 5796 5797 5797 5797 5797 5797 5797 5797 5797 5797 5797 5797 5796 5795 5794 5793 5792 5791 5790 5789 5787 5785 5783 5782 5779 5777 5774 5772 5769 5767 5765 5763 5760 5757 5755 5753 5752
5779 5781 5783 5784 5786 5788 5789 5790 5791 5791 5791 5791 5792 5792 5792 5792 5791 5790 5789 5788 5787 5786 5786 5785 5783 5781 5779 5777 5776 5774 5772 5769 5766 5763 5761 5759 5756 5754 5751 5749 5747 5745 5743
5771 5773 5775 5777 5778 5780 5782 5783 5784 5784 5784 5785 5786 5786 5786 5785 5784 5783 5782 5781 5780 5780 5779 5777 5776 5774 5771 5770 5768 5766 5764 5761 5758 5755 5752 5750 5748 5745 5743 5741 5739 5737 5735
5763 5766 5768 5769 5770 5772 5774 5775 5776 5777 5778 5779 5779 5780 5779 5778 5777 5776 5775 5775 5774 5773 5772 5770 5769 5766 5764 5762 5760 5758 5755 5752 5750 5747 5744 5741 5739 5736 5734 5732 5730 5727 5724
5754 5757 5760 5761 5763 5764 5766 5767 5768 5769 5771 5771 5772 5773 5772 5771 5770 5769 5769 5768 5767 5766 5764 5763 5762 5759 5757 5755 5752 5750 5746 5743 5741 5738 5735 5732 5730 5727 5724 5721 5718 5715 5712
5746 5748 5751 5753 5754 5756 5758 5759 5760 5761 5762 5764 5765 5765 5764 5764 5763 5763 5762 5761 5760 5758 5757 5756 5754 5753 5750 5747 5743 5741 5738 5735 5731 5728 5725 5723 5720 5716 5712 5708 5705 5702 5698
5738 5740 5742 5744 5746 5748 5750 5751 5752 5753 5755 5756 5757 5756 5756 5756 5756 5756 5756 5755 5753 5751 5750 5748 5747 5745 5743 5739 5735 5731 5728 5726 5722 5718 5715 5712 5708 5704 5699 5695 5690 5686 5682
5728 5731 5734 5736 5738 5739 5741 5743 5745 5746 5747 5748 5749 5748 5749 5749 5749 5749 5748 5747 5745 5743 5742 5740 5738 5736 5734 5731 5727 5724 5720 5716 5713 5709 5703 5699 5695 5690 5685 5680 5675 5669 5664
5718 5721 5725 5729 5731 5732 5734 5735 5737 5739 5740 5740 5741 5741 5741 5741 5741 5741 5740 5739 5737 5735 5733 5731 5729 5727 5724 5721 5718 5714 5710 5706 5703 5702 5698 5691 5686 5680 5674 5667 5661 5655 5649
5707 5711 5716 5720 5722 5725 5727 5728 5730 5731 5732 5733 5733 5733 5734 5734 5734 5733 5732 5730 5728 5726 5724 5722 5720 5717 5714 5710 5706 5702 5699 5695 5690 5687 5685 5681 5675 5669 5663 5656 5648 5641 5634
5696 5701 5706 5710 5713 5716 5719 5721 5723 5724 5725 5725 5725 5725 5726 5726 5725 5724 5723 5721 5719 5717 5715 5712 5710 5707 5703 5699 5694 5690 5687 5682 5677 5672 5669 5665 5660 5654 5648 5641 5633 5623 5615